GW4294 Weather Reports


time (UTC)temp
F
wind
direction
speed
knots
gust
knots
rain 1hr
in
rain 24hr
in
rain mn
in
humidity
%
barometer
mb
20260503224600 49 136 0.0 1.7 0.00 0.05 0.05 86 1005.4
20260503223054 49 110 0.0 0.9 0.00 0.05 0.05 86 1005.6
20260503221601 49 143 0.0 1.7 0.01 0.05 0.05 86 1005.8
20260503220052 48 0 0.0 4.3 0.01 0.05 0.05 85 1006.3
20260503214551 48 0 0.0 1.7 0.01 0.04 0.04 85 1006.4
20260503213103 48 0 0.0 2.6 0.01 0.04 0.04 85 1006.2
20260503211556 47 133 0.9 3.5 0.00 0.03 0.03 85 1006.1
20260503210059 48 210 0.9 4.3 0.00 0.03 0.03 84 1006.1
20260503204619 49 176 0.9 9.6 0.00 0.03 0.03 81 1006.2
20260503203100 48 200 0.9 5.2 0.00 0.03 0.03 83 1006.1
20260503201552 48 198 0.9 6.1 0.00 0.03 0.03 85 1006.2
20260503200054 47 209 1.7 5.2 0.01 0.03 0.03 86 1006.6
20260503194555 47 154 0.9 7.0 0.03 0.03 0.03 86 1006.9
20260503193059 46 214 0.9 2.6 0.03 0.03 0.03 87 1007.1
20260503191610 46 218 0.0 4.3 0.02 0.02 0.02 86 1007.3
20260503190051 47 277 2.6 10.4 0.01 0.01 0.01 83 1007.9
20260503184553 51 209 3.5 11.3 0.00 0.00 0.00 71 1008.0
20260503183058 54 253 5.2 12.2 0.00 0.00 0.00 55 1007.5
20260503181554 56 245 3.5 13.0 0.00 0.00 0.00 50 1007.3
20260503174556 56 291 1.7 7.0 0.00 0.00 0.00 47 1007.6
20260503173051 56 275 2.6 7.8 0.00 0.00 0.00 47 1007.6
20260503171553 55 272 2.6 10.4 0.00 0.00 0.00 45 1008.0
20260503170105 54 247 2.6 7.8 0.00 0.00 0.00 47 1007.9
20260503160106 55 197 1.7 7.0 0.00 0.00 0.00 44 1008.3
20260503100104 28 0 0.0 0.0 0.00 0.00 0.00 86 1011.0
20260503081553 29 0 0.0 0.9 0.00 0.00 0.00 83 1011.4
20260503071603 29 0 0.0 0.0 0.00 0.00 0.00 82 1011.3
20260503054606 28 0 0.0 0.0 0.00 0.00 0.00 85 1012.1
20260503053058 28 0 0.0 0.0 0.00 0.00 0.00 84 1012.4
20260503051555 28 0 0.0 0.0 0.00 0.00 0.00 84 1012.6
20260503050051 28 0 0.0 0.0 0.00 0.00 0.00 82 1012.7
20260503044554 29 0 0.0 0.0 0.00 0.00 0.00 81 1013.0
20260503043058 29 0 0.0 0.0 0.00 0.00 0.00 81 1013.0
20260503041552 29 0 0.0 0.0 0.00 0.00 0.00 82 1013.2
20260503040057 29 0 0.0 0.0 0.00 0.00 0.00 82 1013.1
20260503034552 29 0 0.0 0.0 0.00 0.00 0.00 82 1013.2
20260503033058 29 0 0.0 0.0 0.00 0.00 0.00 81 1013.3
20260503031553 30 0 0.0 0.0 0.00 0.00 0.00 79 1013.4
20260503030052 30 0 0.0 0.0 0.00 0.00 0.00 78 1013.4
20260503024555 31 0 0.0 0.0 0.00 0.00 0.00 75 1013.7
20260503023059 31 0 0.0 0.0 0.00 0.00 0.00 75 1013.7
20260503021553 32 0 0.0 0.0 0.00 0.00 0.00 68 1013.8
20260503020053 33 0 0.0 0.0 0.00 0.00 0.00 68 1013.7
20260503014602 34 0 0.0 0.0 0.00 0.00 0.00 60 1013.7
20260503013053 35 0 0.0 0.0 0.00 0.00 0.00 57 1013.7
20260503011553 36 0 0.0 0.0 0.00 0.00 0.00 54 1013.6
20260503010054 37 0 0.0 0.0 0.00 0.00 0.00 52 1013.7
20260503004553 39 0 0.0 0.0 0.00 0.00 0.00 50 1013.5
20260503003055 40 0 0.0 0.9 0.00 0.00 0.00 45 1013.5
20260503001608 41 231 0.0 1.7 0.00 0.00 0.00 42 1013.5
20260503000109 42 0 0.0 3.5 0.00 0.00 0.00 42 1013.6
20260502234606 42 304 0.9 4.3 0.00 0.00 0.00 39 1013.6
20260502233056 43 254 1.7 7.0 0.00 0.00 0.00 38 1013.6
20260502231559 44 264 1.7 7.0 0.00 0.00 0.00 37 1013.6
20260502230052 44 227 2.6 7.8 0.00 0.00 0.00 37 1013.5